Mardi 26 mai 2020   -   semaine 22                    on fête: Béranger                    soleil  (+2 mn) lever du soleil 06:02:00 coucher du soleil 21:25:00                    lune Premier croissant
Sélection

Sélection d'un SYNOP

   Synop:       

  Période à consulter:

Actuelle
Archive     

Relevé

Dernier relevé du SYNOP pour la période choisie

Conditions météo à la station de Vichy/Charmeil (4610N 00324E)    altitude 251m

Date du relevé26/05/2020 à 18:00
Visibilité20km
Vent22 km/h NNE
Température24.0 C
Humidité32.9 %
Point de rosée6.7 C
Pression absolue999.3 hPa
Pression relative1028.3 hPa
Variation pression-0.8 hPa en baisse régulière ou irrégulière
Temps présentAucune formation de nuages observée ou observable.

24h

Historique de la période choisie

Certaines stations ne diffusent pas en continu, d'où l'absence possible de données à certaines heures. Le tableau ci-dessous récapitule l'historique des relevés de la station de Vichy/Charmeil.

Date - Heure Base des nuages Visibilité Nébulosité Vent - Secteur Température Humidité Point rosée Pression / Géopotentiel Précipitations Temps
26/05 18:00 20km 22 km/h NNE 24.0 C 32.9 % 6.7 C 1028.3 hPa
26/05 17:00 20km 11 km/h NNE 24.0 C 29.9 % 5.3 C 1028.7 hPa
26/05 16:00 20km 11 km/h N 23.8 C 35.0 % 7.4 C 1028.9 hPa
26/05 15:00 19km 9 km/h NNE 23.2 C 42.1 % 9.6 C 1029.2 hPa
26/05 14:00 20km 7 km/h NNE 22.1 C 45.9 % 9.9 C 1029.8 hPa 0 mm/6h
26/05 13:00 20km 11 km/h NE 21.5 C 48.9 % 10.3 C 1030.3 hPa
26/05 12:00 20km 9 km/h NNE 20.2 C 55.1 % 10.9 C 1030.5 hPa
26/05 11:00 20km 11 km/h NE 18.8 C 54.0 % 9.3 C 1030.7 hPa
26/05 10:00 20km 9 km/h NNE 17.7 C 57.1 % 9.1 C 1030.8 hPa
26/05 09:00 19km 6 km/h N 15.5 C 72.1 % 10.5 C 1031.0 hPa
26/05 08:00 20km 2 km/h NE 12.9 C 82.0 % 9.9 C 1031.4 hPa 0 mm/12h
26/05 07:00 19km 2 km/h ONO 8.1 C 99.3 % 8.0 C 1032.0 hPa
26/05 06:00 19km 2 km/h O 6.8 C 98.0 % 6.5 C 1031.8 hPa
26/05 05:00 19km 2 km/h O 7.2 C 97.3 % 6.8 C 1031.6 hPa
26/05 04:00 19km 2 km/h NNO 7.9 C 94.7 % 7.1 C 1031.6 hPa
26/05 03:00 20km 2 km/h O 8.6 C 94.7 % 7.8 C 1031.5 hPa
26/05 02:00 20km 0 km/h N 9.3 C 92.8 % 8.2 C 1031.5 hPa 0 mm/6h
26/05 01:00 20km 0 km/h N 10.5 C 89.8 % 8.9 C 1031.6 hPa
26/05 00:00 20km 2 km/h O 11.6 C 85.8 % 9.3 C 1031.4 hPa
25/05 23:00 20km 2 km/h N 15.1 C 70.2 % 9.7 C 1030.8 hPa
25/05 22:00 20km 4 km/h N 16.6 C 65.0 % 10.0 C 1030.1 hPa
25/05 21:00 20km 9 km/h NNE 19.8 C 52.2 % 9.7 C 1029.3 hPa
25/05 20:00 20km 11 km/h NNE 21.6 C 47.0 % 9.8 C 1028.6 hPa 0 mm/12h
25/05 19:00 20km 6 km/h NE 22.3 C 46.9 % 10.4 C 1028.6 hPa
25/05 18:00 18km 9 km/h NE 22.7 C 43.1 % 9.5 C 1028.7 hPa

Source: ogimet